Provo, UT

5:59 AM MDT on June 24, 2017 (GMT -0600)
Provo Municipal

Weather History for KPVU - October, 2011

Change the Weather History Date:

Wednesday, October 19, 2011

  Actual Average Record
Temperature  
Mean Temperature 50 °F -  
Max Temperature 66 °F 59 °F 80 °F (2003)
Min Temperature 35 °F 34 °F 27 °F (1982)
Degree Days  
Heating Degree Days 14    
Moisture  
Dew Point 36 °F    
Average Humidity 71    
Maximum Humidity 93    
Minimum Humidity 32    
Precipitation  
Precipitation 0.00 in - - ()
Sea Level Pressure  
Sea Level Pressure 30.13 in    
Wind  
Wind Speed 3 mph (SE)    
Max Wind Speed 10 mph    
Max Gust Speed -    
Visibility 12 miles    
Events      
Averages and records for this station are not official NWS values.
T = Trace of Precipitation, MM = Missing Value Source: NWS Daily Summary

Daily Weather History Graph

Daily Weather History Graph

Search for Another Location

Airport or City:

Trip Planner

Search our weather history database for the weather conditions in past years. The results will help you decide how hot, cold, wet, or windy it might be!

Date:

Astronomy

Oct. 19, 2011 Rise Set
Actual Time 7:41 AM MDT 6:41 PM MDT
Civil Twilight 7:14 AM MDT 7:08 PM MDT
Nautical Twilight 6:42 AM MDT 7:40 PM MDT
Astronomical Twilight 6:11 AM MDT 8:11 PM MDT
Moon No Moon Rise 2:15 PM MDT (10/19)
Length of Visible Light 11h 54m
Length of Day
10h 59m
Waning Gibbous, 54% of the Moon is Illuminated
Oct 19
Waning Gibbous
Oct 19
Last Quarter
Oct 26
New
Nov 2
First Quarter
Nov 10
Full

Hourly Weather History & Observations

Time (MDT) Temp. Windchill Dew Point Humidity Pressure Visibility Wind Dir Wind Speed Gust Speed Precip Events Conditions
12:15 AM 42.8 °F 39.3 °F 33.8 °F 70% 30.25 in 10.0 mi South 5.8 mph - N/A   Clear
12:35 AM 41.0 °F 39.0 °F 33.8 °F 76% 30.25 in 10.0 mi South 3.5 mph - N/A   Clear
12:55 AM 42.8 °F - 35.6 °F 76% 30.25 in 10.0 mi Calm Calm - N/A   Clear
1:15 AM 39.2 °F - 35.6 °F 87% 30.24 in 10.0 mi Calm Calm - N/A   Clear
1:35 AM 39.2 °F 37.0 °F 35.6 °F 87% 30.23 in 10.0 mi ENE 3.5 mph - N/A   Clear
1:55 AM 39.2 °F - 35.6 °F 87% 30.22 in 10.0 mi Calm Calm - N/A   Clear
2:15 AM 42.8 °F 41.1 °F 37.4 °F 81% 30.22 in 10.0 mi SSW 3.5 mph - N/A   Clear
2:35 AM 37.4 °F - 33.8 °F 87% 30.22 in 10.0 mi Calm Calm - N/A   Clear
2:55 AM 39.2 °F - 35.6 °F 87% 30.21 in 10.0 mi Calm Calm - N/A   Clear
3:15 AM 37.4 °F 34.9 °F 35.6 °F 93% 30.21 in 10.0 mi NNE 3.5 mph - N/A   Clear
3:35 AM 37.4 °F - 33.8 °F 87% 30.20 in 10.0 mi Calm Calm - N/A   Clear
3:55 AM 39.2 °F - 33.8 °F 81% 30.19 in 10.0 mi Calm Calm - N/A   Clear
4:15 AM 37.4 °F 33.8 °F 33.8 °F 87% 30.18 in 10.0 mi SE 4.6 mph - N/A   Clear
4:35 AM 37.4 °F 32.8 °F 32.0 °F 81% 30.18 in 10.0 mi South 5.8 mph - N/A   Clear
4:55 AM 37.4 °F 33.8 °F 33.8 °F 87% 30.18 in 10.0 mi East 4.6 mph - N/A   Clear
5:15 AM 37.4 °F 31.4 °F 33.8 °F 87% 30.17 in 10.0 mi SE 8.1 mph - N/A   Clear
5:35 AM 39.2 °F - 33.8 °F 81% 30.16 in 10.0 mi Calm Calm - N/A   Clear
6:15 AM 41.0 °F 38.0 °F 32.0 °F 70% 30.16 in 10.0 mi South 4.6 mph - N/A   Clear
6:35 AM 37.4 °F 34.9 °F 33.8 °F 87% 30.16 in 10.0 mi ENE 3.5 mph - N/A   Clear
6:50 AM 35.6 °F - 32.0 °F 87% 30.16 in 15.0 mi Calm Calm - N/A   Clear
7:50 AM 35.6 °F - 30.2 °F 81% 30.15 in 15.0 mi Calm Calm - N/A   Clear
10:50 AM 51.8 °F - 33.8 °F 50% 30.12 in 15.0 mi Calm Calm - N/A   Clear
11:47 AM 55.4 °F - 33.8 °F 44% 30.09 in 15.0 mi ESE 6.9 mph - N/A   Partly Cloudy
12:47 PM 59.0 °F - 32.0 °F 36% 30.07 in 15.0 mi Calm Calm - N/A   Partly Cloudy
1:57 PM 60.8 °F - 35.6 °F 39% 30.03 in 15.0 mi Variable 4.6 mph - N/A   Clear
2:58 PM 66.2 °F - 35.6 °F 32% 30.00 in 15.0 mi Variable 6.9 mph - N/A   Clear
3:50 PM 62.6 °F - 46.4 °F 55% 29.99 in 15.0 mi West 8.1 mph - N/A   Partly Cloudy
4:47 PM 62.6 °F - 37.4 °F 39% 29.98 in 15.0 mi SSW 6.9 mph - N/A   Partly Cloudy
5:48 PM 62.6 °F - 41.0 °F 45% 29.98 in 15.0 mi WNW 5.8 mph - N/A   Partly Cloudy
6:47 PM 57.2 °F - 44.6 °F 63% 30.00 in 15.0 mi WNW 10.4 mph - N/A   Clear
7:52 PM 55.4 °F - 42.8 °F 63% 30.01 in 15.0 mi WNW 9.2 mph - N/A   Clear
8:58 PM 53.6 °F - 39.2 °F 58% 30.04 in 15.0 mi NW 9.2 mph - N/A   Clear
9:15 PM 53.6 °F - 39.2 °F 58% 30.05 in 10.0 mi NNW 9.2 mph - N/A   Clear
9:35 PM 51.8 °F - 39.2 °F 62% 30.05 in 10.0 mi Calm Calm - N/A   Clear
9:55 PM 50.0 °F - 39.2 °F 66% 30.06 in 10.0 mi Calm Calm - N/A   Clear
10:15 PM 48.2 °F - 37.4 °F 66% 30.07 in 10.0 mi North 3.5 mph - N/A   Clear
10:35 PM 46.4 °F 44.3 °F 42.8 °F 87% 30.08 in 10.0 mi NNE 4.6 mph - N/A   Clear
10:55 PM 44.6 °F - 39.2 °F 81% 30.08 in 10.0 mi Calm Calm - N/A   Clear
11:15 PM 46.4 °F 43.5 °F 39.2 °F 76% 30.08 in 10.0 mi ESE 5.8 mph - N/A   Clear
11:35 PM 44.6 °F 43.1 °F 39.2 °F 81% 30.08 in 10.0 mi ESE 3.5 mph - N/A   Clear
11:55 PM 46.4 °F 42.9 °F 41.0 °F 81% 30.09 in 10.0 mi SE 6.9 mph - N/A   Clear